Regional Weather Roundup
Issued by NWS

Home | Current Version | Previous Version | Text Only | Print | Product List | Glossary On
Versions: 1 2 3 4 5 6 7 8 9 10 11 12 13 14 15 16 17 18 19 20 21 22 23 24 25 26 27 28 29 30 31 32 33 34 35 36 37 38 39 40 41 42 43 44 45 46 47 48 49 50
000
ASUS44 KJAN 251910
RWRMS

MISSISSIPPI HOURLY WEATHER ROUNDUP
NATIONAL WEATHER SERVICE JACKSON MS
200 PM CDT MON SEP 25 2017

NOTE: "FAIR: INDICATES FEW OR NO CLOUDS BELOW 12,000 FEET WITH NO
SIGNIFICANT WEATHER AND/OR OBSTRUCTIONS TO VISIBILITY.

MSZ001>002-007>008-010>013-018>021-025>028-034>036-252000-
NORTHWEST MISSISSIPPI

CITY           SKY/WX    TMP DP  RH WIND       PRES   REMARKS
BATESVILLE     FAIR      84  66  54 CALM      29.96F
CLARKSDALE       N/A     88  68  51 E9        29.95F HX  91
CLEVELAND      FAIR      88  66  47 E8        29.93F HX  90
GREENWOOD      CLOUDY    87  67  51 E7        29.94F HX  90
GREENVILLE     PTSUNNY   86  64  47 E8        29.92F
OLIVE BRANCH   PTSUNNY  N/A N/A N/A SE5       29.95F
TUNICA           N/A    N/A N/A N/A SE7       29.95F
WINONA         FAIR      83  67  58 CALM      29.95F
$$

MSZ003>006-009-014>017-022>024-029>033-037>039-252000-
NORTHEAST MISSISSIPPI

CITY           SKY/WX    TMP DP  RH WIND       PRES   REMARKS
COLUMBUS AFB   CLOUDY    87  71  58 SE8       29.94F HX  92
GOLDN TRIANGLE MOSUNNY   86  66  51 E12       29.95F
STARKVILLE     MOCLDY    84  66  54 E7        29.95F
TUPELO         PTSUNNY   86  62  44 NE6       29.96F
$$

MSZ040-058-252000-
CENTRAL MISSISSIPPI

CITY           SKY/WX    TMP DP  RH WIND       PRES   REMARKS
JACKSON INTL   MOSUNNY   86  66  51 VRB6      29.93F
JACKSON HAWKNS SUNNY     86  66  51 VRB3      29.93F
MADISON        FAIR      84  64  51 NE5       29.93F
MERIDIAN KEY   CLOUDY    85  69  58 MISG      29.93F
MERIDIAN NAS   PTSUNNY   84  69  60 VRB6      29.94F
RAYMOND        FAIR      86  66  51 CALM      29.92F
VICKSBURG VKS  PTCLDY    90  66  45 VRB5      29.92F HX  92
$$

MSZ059>079-252000-
SOUTH MISSISSIPPI

CITY           SKY/WX    TMP DP  RH WIND       PRES   REMARKS
COLUMBIA       FAIR      82 N/A N/A E7        29.95F
HATTIESBURG    MOSUNNY   82  71  69 E9        29.92F
LAUREL         CLOUDY    82  66  58 E5        29.93F
MCCOMB         MOSUNNY   84  65  52 NE5       29.91F
NATCHEZ        PTSUNNY   85  68  56 NE8       29.92F
PINE BELT      MOSUNNY   82  69  64 SE8       29.93F
$$

MSZ080>082-252000-
COASTAL MISSISSIPPI

CITY           SKY/WX    TMP DP  RH WIND       PRES   REMARKS
BAY ST LOUIS   PTSUNNY   82  70  65 E7        29.88F
BILOXI         MOSUNNY   86  73  65 SE9       29.88F THUNDER HX  92
PASCAGOULA     CLOUDY    80  73  79 N6        29.88F
GULFPORT       MOSUNNY   85  73  67 SE12      29.88F HX  91
$$

LAZ007>009-015>016-023>026-252000-
NORTHEAST LOUISIANA

CITY           SKY/WX    TMP DP  RH WIND       PRES   REMARKS
BASTROP        FAIR      89  65  44 E6        29.92F HX  90
TALLULAH/VBURG SUNNY     87  66  49 MISG      29.91F
VIDALIA          N/A    N/A N/A N/A MISG      29.89F
$$



USA.gov is the U.S. government's official web portal to all federal, state and local government web resources and services.